Starlink 31463

operational
NORAD ID: 59296 Int'l Des: 2024-056 Owner: SPXS Country: US Constellation: starlink
LEOCIRCULAR

About Starlink 31463

Description loading...

Live Position

Loading 3D Globe...

Upcoming Passes

Altitude History

Altitude vs Time

uPlot chart will show altitude changes over time

Two-Line Element Set

1 59296U 24056A 25304.83662291 -.00005288 00000-0 -18297-3 0 9994
2 59296 42.9987 234.4524 0000843 293.2623 66.8140 15.27545796 91497
Epoch: Oct 31, 2025 • Age: 15 hours

Current Status

Altitude 489.3 km
Velocity 7.62 km/s
Sub-Earth Point -25.33°S, 127.1°W
Launch Date Mar 24, 2024
Age 1.6 years
Type internet

Technical Details

Classification Payload
Mass 730.00 kg
Dry Mass 700.00 kg
Total Mass 730.00 kg
Length 0.30 m
Diameter 4.10 m
Span 29.00 m
Shape Box + pan
Manufacturer SPXS
Bus Type Starlink V2M
Phase Status In Orbit
Owner/State SPXS/US

Large Constellations

Loading constellations...